Location: City of Greenville
(31.8437°N, 86.6379°W)
Time: 04:38:26
(UTC+00:00)

Daily predictions for brighter satellites

Satellite Brightness Start Highest point End
(mag) Time Altitude Azimuth Time Altitude Azimuth Time Altitude Azimuth
COSMOS 2487 4.2 00:00:31 10° NW 00:03:41 35° WSW 00:06:49 10° S
Okean O Rocket 3.8 00:00:25 10° SSW 00:04:15 30° W 00:08:05 10° NW
COSMO-SKYMED 1 3.1 00:00:26 10° N 00:04:43 62° WNW 00:08:59 10° SSW
SeaSat 1 4.4 00:11:23 12° NE 00:11:23 12° NE 00:12:36 10° NNE
YAOGAN 1 2.9 00:09:20 10° SE 00:13:22 40° ENE 00:17:23 10° N
Aureole 3 3.6 00:10:23 10° SSW 00:13:56 54° W 00:17:00 10° N
Cosmos 2219 3.7 00:09:07 10° N 00:14:25 37° ENE 00:17:55 19° ESE
S3M 4.0 00:12:35 10° SSE 00:18:30 55° E 00:24:28 10° NNE
Cosmos 1812 Rocket 4.2 00:16:27 10° SSE 00:20:07 32° E 00:20:07 32° E
CZ-2C R/B 3.4 00:17:02 10° SSE 00:22:41 55° ENE 00:28:16 10° N
Cosmos 1315 Rocket 3.0 00:19:50 10° SSE 00:23:34 45° E 00:24:27 38° ENE
Cosmos 1892 2.9 00:22:23 10° N 00:26:08 46° E 00:26:14 46° E
CZ-2D R/B 3.3 00:22:23 10° S 00:26:12 78° W 00:30:00 10° NNW
Cosmos 2369 3.8 00:22:53 10° S 00:28:27 55° ESE 00:32:24 19° NE
Cosmos 968 Rocket 4.1 00:23:48 10° N 00:28:17 33° ENE 00:28:17 33° ENE
Hubble Space Telescope 3.2 00:26:05 10° WSW 00:28:41 16° SSW 00:31:17 10° SSE
Delta 2 Rocket 4.0 00:23:58 10° WNW 00:29:19 69° NNE 00:31:32 37° E
Cosmos 1417 Rocket 4.5 00:24:03 10° S 00:30:15 89° W 00:36:35 10° N
Atlas Centaur 2 3.2 00:22:33 10° WSW 00:30:59 68° SSE 00:35:21 31° E
Meteor 2-10 Rocket 3.4 00:26:17 10° S 00:31:44 80° E 00:36:59 10° N
Timation 2 Rocket 4.1 00:25:04 10° NNW 00:31:48 81° ENE 00:38:40 10° SSE
Okean-O 2.6 00:30:05 10° S 00:34:30 84° WSW 00:38:57 10° NNW
CRYOSAT 2 4.3 00:30:25 10° NNE 00:35:14 62° E 00:40:01 10° S
ARGOS 3.9 00:36:35 32° NE 00:36:35 32° NE 00:40:29 10° N
NOSS 3-3 (A) 3.7 00:31:13 10° SSW 00:36:49 86° WNW 00:41:50 16° NNE
NOSS 3-3 (C) 3.8 00:31:17 10° SSW 00:36:56 86° WNW 00:41:57 16° NNE
Meteor 2-1 Rocket 4.0 00:34:24 10° S 00:39:56 81° E 00:45:27 10° N
Cosmos 1486 Rocket 4.2 00:35:46 10° N 00:40:54 47° ENE 00:41:03 47° ENE
Delta 142 4.3 00:38:00 10° W 00:42:53 59° S 00:44:45 40° SE
SJ-11-01 4.2 00:46:20 62° ENE 00:46:20 62° ENE 00:50:57 10° N
MOS 1 Rocket 3.6 00:45:30 10° N 00:50:14 72° WNW 00:55:14 10° SSW
CSL-04 Rocket 3.6 00:46:02 15° SSE 00:50:35 69° ENE 00:56:05 10° N
Cosmos 2227 Rocket 2.1 00:45:17 10° NNW 00:50:51 58° ENE 00:51:13 56° E
GEOS 3 Rocket 4.2 00:57:17 42° NNE 00:57:17 42° NNE 01:01:33 10° NNW
SL-08 ROCKET BODY 4.4 00:50:34 10° N 00:56:42 83° W 01:02:53 10° S
OAO 3 Rocket 3.1 00:56:35 10° WNW 01:01:04 78° W 01:01:04 78° W
Cosmos 1697 Rocket 3.1 00:56:08 10° SSW 01:01:39 61° WNW 01:05:59 17° N
H-2A R/B 2.1 01:03:04 26° S 01:06:14 84° WSW 01:11:42 10° NNW
ASTRO E2 4.3 01:09:05 10° W 01:11:22 33° WSW 01:11:22 33° WSW
Cosmos 1455 4.3 01:16:47 10° SW 01:19:52 26° W 01:19:52 26° W
CZ-4 R/B 4.0 01:20:35 10° SW 01:23:24 19° W 01:26:14 10° NW
Cosmos 1980 Rocket 2.5 01:17:49 10° SSW 01:22:19 58° SW 01:22:19 58° SW
Cosmos 44 Rocket 4.4 01:22:13 10° SW 01:25:33 40° WSW 01:25:33 40° WSW
Cosmos 2297 Rocket 3.0 01:25:31 10° NNW 01:30:56 47° WSW 01:32:04 41° SW
Milstar 3 2.9 01:28:24 10° W 01:34:44 66° SSW 01:34:44 66° SSW
Atlas Centaur 2 3.8 02:12:21 10° W 02:17:56 45° W 02:17:56 45° W
CENTAUR R/B 4.2 08:57:17 24° NNE 08:57:17 24° NNE 08:59:47 10° NNE
Cosmos 1833 Rocket 4.2 09:08:56 31° ESE 09:09:20 31° ESE 09:14:15 10° NE
H-2A R/B 4.3 09:18:46 10° SE 09:20:50 22° ESE 09:20:50 22° ESE
Cosmos 2082 Rocket 4.3 09:24:01 10° SSE 09:28:26 24° ESE 09:32:51 10° NE
ATLAS 3B R/B 3.2 09:36:11 27° S 09:39:39 54° ESE 09:46:01 10° NE
EPKM 4.0 09:43:42 48° SSW 09:44:42 53° SSE 10:02:34 10° E
COSMOS 2406 3.3 09:48:10 66° N 09:48:10 66° N 09:53:02 10° NNE
Cosmos 2279 Rocket 3.9 09:46:52 10° N 09:53:05 88° E 09:59:16 10° S
ADEOS Rocket 2.8 09:51:49 10° SSE 09:57:21 78° ENE 10:02:51 10° N
Cosmos 292 Rocket 3.9 09:57:38 49° N 09:58:52 71° ENE 10:03:41 10° SSE
ERS-2 3.9 09:59:03 10° SE 10:02:18 32° ENE 10:05:34 10° N
BREEZE-M DEB (TANK) 4.2 10:04:38 16° NE 10:04:38 16° NE 10:05:38 10° ENE
Cosmos 1908 3.6 10:08:35 33° NNE 10:10:12 65° E 10:14:04 10° SSE
Cosmos 1461 2.9 10:10:10 82° W 10:10:16 84° WNW 10:14:55 10° NNE
CBERS 1 LM4 rocket 4.2 10:09:06 10° N 10:13:54 64° WNW 10:14:27 59° WSW
Cosmos 2251 Rocket 4.2 10:09:09 10° S 10:14:22 56° ESE 10:19:36 10° NNE
SL-14 R/B 4.1 10:10:59 10° S 10:14:47 51° E 10:18:40 10° NNE
FENGYUN 3A 3.8 10:09:40 10° NNE 10:15:07 74° ESE 10:20:31 10° S
ISS -1.2 10:19:03 13° N 10:19:03 13° N 10:19:38 10° NNE
USA 290 3.1 10:18:28 28° SSE 10:19:46 48° ESE 10:22:52 10° NNE
DELTA 2 R/B (1) 3.7 10:24:50 35° NW 10:27:15 70° NNE 10:32:51 10° ESE
CZ-2C R/B 2.0 10:30:29 28° S 10:30:29 28° S 10:32:52 10° SE
Cosmos 1331 Rocket 4.4 10:30:15 38° W 10:30:44 39° W 10:35:33 10° SSW
ALOS 2.2 10:31:21 10° N 10:35:59 66° WNW 10:40:35 10° SSW
Cosmos 1626 2.1 10:35:32 10° SSW 10:39:06 51° W 10:42:42 10° N
Cosmos 1484 Rocket 2.9 10:38:20 10° N 10:42:01 48° WNW 10:45:39 10° SSW
GOES 2 Rocket 4.3 10:41:08 21° WSW 10:44:58 59° S 10:52:26 10° E
CENTAUR R/B 4.1 10:44:29 15° NW 10:45:01 15° NW 10:48:45 10° N
CZ-2C R/B 4.1 10:43:03 10° NNW 10:44:45 16° NW 10:44:45 16° NW
Cosmos 1092 Rocket 3.9 10:44:47 10° S 10:50:54 75° W 10:57:07 10° N
Cosmos 2228 3.0 10:46:59 10° N 10:51:22 89° E 10:55:45 10° S
CZ-4B R/B 3.1 10:47:57 10° NNE 10:52:04 78° ESE 10:56:21 10° S
Cosmos 1833 Rocket 3.5 10:50:45 21° W 10:53:09 28° WNW 10:57:58 10° N
COSMO-SKYMED 1 3.4 10:50:11 10° SSE 10:54:23 53° ENE 10:58:37 10° N
Cosmos 1606 Rocket 3.6 10:50:01 10° N 10:54:30 90° W 10:58:58 10° S
ADEOS 3.9 10:50:08 10° N 10:54:59 40° WNW 10:59:49 10° SW
Nadezhda 4 Rocket 4.4 10:51:33 10° SW 10:57:08 37° W 11:02:45 10° NNW
Lacrosse 5 rocket 3.3 10:58:35 11° NNW 10:58:35 11° NNW 10:59:27 10° NNW
Geosat 4.0 10:53:39 10° SSE 10:58:36 63° WSW 11:03:35 10° NNW
H-2A R/B 3.6 10:55:34 10° SW 10:57:55 17° WSW 10:57:55 17° WSW
Meteor 1-24 Rocket 3.7 10:54:24 10° SSW 10:59:49 59° W 11:05:29 10° N
Cosmos 1302 Rocket 4.4 10:55:51 10° NNW 11:00:48 42° W 11:05:43 10° S
ATLAS CENTAUR R/B 3.8 10:58:15 10° SSE 11:01:36 25° ESE 11:04:50 10° ENE
CZ-3 R/B 3.0 10:42:22 16° W 11:02:27 75° S 11:08:57 10° E
Meteor 1-31 Rocket 3.4 11:02:33 10° N 11:06:06 33° WNW 11:09:38 10° SW
Meteor PRIRODA 3.5 11:05:11 10° N 11:08:50 72° WNW 11:12:28 10° SSW
CZ-4B R/B 2.2 11:06:11 10° SSW 11:09:18 32° W 11:12:26 10° NNW
Cosmos 2369 3.7 11:06:33 10° NNW 11:12:13 83° WSW 11:17:51 10° SSE
Cosmos 2082 Rocket 2.7 11:07:09 10° SW 11:12:14 35° WNW 11:17:21 10° N
Okean 1-7 Rocket 3.6 11:08:36 10° SSW 11:13:08 73° W 11:17:40 10° N
OE (NEXTSAT) 4.3 11:14:12 10° WSW 11:17:39 67° NW 11:21:08 10° NE
PSLV R/B 4.4 11:14:47 10° NNE 11:18:52 67° E 11:22:56 10° S
Cosmos 220 Rocket 4.1 11:18:33 10° NNW 11:22:55 59° WSW 11:27:13 10° S
Gblst 52 Del rocket 4.2 11:18:51 10° SW 11:24:24 77° NW 11:30:34 10° NE
Cosmos 2058 Rocket 3.1 11:20:32 10° N 11:25:02 86° W 11:29:28 10° S
Cosmos 1892 Rocket 4.3 11:25:09 10° SW 11:28:56 30° W 11:32:47 10° NNW
ATLAS 3B R/B 3.6 11:25:21 10° WSW 11:30:35 25° NW 11:35:52 10° N
Cosmos 2084 4.5 11:27:45 10° WSW 11:31:24 27° NW 11:35:07 10° N
Spot 2 4.3 11:27:50 10° N 11:32:27 76° WNW 11:37:20 10° SSW
Cosmos 1400 Rocket 3.0 11:30:56 10° NNW 11:34:41 45° W 11:38:23 10° SSW
